DL1MMS-10 Weather Reports


Display with metric or nautical units.
time (UTC)temp
F
wind
direction
speed
MPH
gust
MPH
rain 1hr
in
rain 24hr
in
rain mn
in
humidity
%
barometer
mb
20260901104617 89 0 0.0 0.0 0.00 0.00 0.00 34 1022.0
20260901104117 87 0 0.0 0.0 0.00 0.00 0.00 36 1022.0
20260901103617 86 0 0.0 0.0 0.00 0.00 0.00 37 1022.2
20260901103116 88 0 0.0 0.0 0.00 0.00 0.00 36 1022.2
20260901102616 88 0 0.0 0.0 0.00 0.00 0.00 37 1022.2
20260901102116 88 0 0.0 0.0 0.00 0.00 0.00 40 1022.3
20260901101616 86 0 0.0 0.0 0.00 0.00 0.00 42 1022.3
20260901101115 81 0 0.0 0.0 0.00 0.00 0.00 46 1022.4
20260901100615 77 0 0.0 0.0 0.00 0.00 0.00 50 1022.4
20260901100115 74 0 0.0 0.0 0.00 0.00 0.00 52 1022.4
20260901095614 72 0 0.0 0.0 0.00 0.00 0.00 55 1022.4
20260901095114 71 0 0.0 0.0 0.00 0.00 0.00 56 1022.4
20260901094614 70 0 0.0 0.0 0.00 0.00 0.00 57 1022.4
20260901094114 69 0 0.0 0.0 0.00 0.00 0.00 58 1022.4
20260901093614 69 0 0.0 0.0 0.00 0.00 0.00 59 1022.5
20260901093113 68 0 0.0 0.0 0.00 0.00 0.00 60 1022.4
20260901092613 68 0 0.0 0.0 0.00 0.00 0.00 60 1022.6
20260901092113 68 0 0.0 0.0 0.00 0.00 0.00 60 1022.5
20260901091612 68 0 0.0 0.0 0.00 0.00 0.00 61 1022.6
20260901091112 68 0 0.0 0.0 0.00 0.00 0.00 61 1022.6
20260901090612 67 0 0.0 0.0 0.00 0.00 0.00 61 1022.6
20260901090111 67 0 0.0 0.0 0.00 0.00 0.00 62 1022.6
20260901085611 67 0 0.0 0.0 0.00 0.00 0.00 62 1022.6
20260901085111 66 0 0.0 0.0 0.00 0.00 0.00 64 1022.5
20260901084611 66 0 0.0 0.0 0.00 0.00 0.00 66 1022.5
20260901084110 65 0 0.0 0.0 0.00 0.00 0.00 67 1022.5
20260901083610 65 0 0.0 0.0 0.00 0.00 0.00 67 1022.5
20260901083110 64 0 0.0 0.0 0.00 0.00 0.00 69 1022.4
20260901082609 64 0 0.0 0.0 0.00 0.00 0.00 71 1022.4
20260901082109 63 0 0.0 0.0 0.00 0.00 0.00 72 1022.4
20260901081609 63 0 0.0 0.0 0.00 0.00 0.00 73 1022.4
20260901081109 62 0 0.0 0.0 0.00 0.00 0.00 73 1022.3
20260901080608 62 0 0.0 0.0 0.00 0.00 0.00 74 1022.4
20260901080108 62 0 0.0 0.0 0.00 0.00 0.00 75 1022.4
20260901075608 61 0 0.0 0.0 0.00 0.00 0.00 76 1022.4
20260901075107 61 0 0.0 0.0 0.00 0.00 0.00 76 1022.4
20260901074607 60 0 0.0 0.0 0.00 0.00 0.00 77 1022.4
20260901074107 60 0 0.0 0.0 0.00 0.00 0.00 78 1022.5
20260901073607 59 0 0.0 0.0 0.00 0.00 0.00 79 1022.4
20260901073106 59 0 0.0 0.0 0.00 0.00 0.00 80 1022.4
20260901072606 58 0 0.0 0.0 0.00 0.00 0.00 81 1022.3
20260901072106 58 0 0.0 0.0 0.00 0.00 0.00 82 1022.4
20260901071605 57 0 0.0 0.0 0.00 0.00 0.00 83 1022.3
20260901071105 57 0 0.0 0.0 0.00 0.00 0.00 83 1022.4
20260901070605 57 0 0.0 0.0 0.00 0.00 0.00 84 1022.2
20260901070105 57 0 0.0 0.0 0.00 0.00 0.00 84 1022.3
20260901065604 56 0 0.0 0.0 0.00 0.00 0.00 85 1022.3
20260901065104 56 0 0.0 0.0 0.00 0.00 0.00 85 1022.3
20260901064604 55 0 0.0 0.0 0.00 0.00 0.00 86 1022.4
20260901064103 55 0 0.0 0.0 0.00 0.00 0.00 86 1022.4
20260901063603 55 0 0.0 0.0 0.00 0.00 0.00 87 1022.4
20260901063103 54 0 0.0 0.0 0.00 0.00 0.00 87 1022.4
20260901062603 54 0 0.0 0.0 0.00 0.00 0.00 88 1022.3
20260901062102 53 0 0.0 0.0 0.00 0.00 0.00 88 1022.3
20260901061602 52 0 0.0 0.0 0.00 0.00 0.00 88 1022.2
20260901061102 51 0 0.0 0.0 0.00 0.00 0.00 87 1022.3
20260901060601 51 0 0.0 0.0 0.00 0.00 0.00 87 1022.2
20260901055601 50 0 0.0 0.0 0.00 0.00 0.00 87 1022.3
20260901055101 50 0 0.0 0.0 0.00 0.00 0.00 87 1022.4
20260901054600 50 0 0.0 0.0 0.00 0.00 0.00 87 1022.4
20260901054100 50 0 0.0 0.0 0.00 0.00 0.00 87 1022.3
20260901053600 50 0 0.0 0.0 0.00 0.00 0.00 88 1022.3
20260901053059 50 0 0.0 0.0 0.00 0.00 0.00 87 1022.3
20260901052559 49 0 0.0 0.0 0.00 0.00 0.00 87 1022.3
20260901052059 49 0 0.0 0.0 0.00 0.00 0.00 87 1022.3
20260901051559 49 0 0.0 0.0 0.00 0.00 0.00 87 1022.3
20260901051058 49 0 0.0 0.0 0.00 0.00 0.00 87 1022.3
20260901050558 49 0 0.0 0.0 0.00 0.00 0.00 87 1022.3
20260901050058 48 0 0.0 0.0 0.00 0.00 0.00 87 1022.3
20260901045557 48 0 0.0 0.0 0.00 0.00 0.00 86 1022.3
20260901045057 48 0 0.0 0.0 0.00 0.00 0.00 86 1022.3
20260901044557 48 0 0.0 0.0 0.00 0.00 0.00 86 1022.2
20260901044057 48 0 0.0 0.0 0.00 0.00 0.00 86 1022.1
20260901043556 48 0 0.0 0.0 0.00 0.00 0.00 86 1022.2
20260901043056 49 0 0.0 0.0 0.00 0.00 0.00 86 1022.2
20260901042556 49 0 0.0 0.0 0.00 0.00 0.00 86 1022.2
20260901042056 49 0 0.0 0.0 0.00 0.00 0.00 86 1022.1
20260901041555 49 0 0.0 0.0 0.00 0.00 0.00 85 1022.3
20260901041055 49 0 0.0 0.0 0.00 0.00 0.00 85 1022.3
20260901040555 49 0 0.0 0.0 0.00 0.00 0.00 85 1022.2
20260901040054 49 0 0.0 0.0 0.00 0.00 0.00 85 1022.1
20260901035554 49 0 0.0 0.0 0.00 0.00 0.00 85 1022.1
20260901035054 49 0 0.0 0.0 0.00 0.00 0.00 85 1022.2
20260901034554 49 0 0.0 0.0 0.00 0.00 0.00 85 1022.1
20260901034053 50 0 0.0 0.0 0.00 0.00 0.00 85 1022.1
20260901033553 50 0 0.0 0.0 0.00 0.00 0.00 85 1022.1
20260901033053 50 0 0.0 0.0 0.00 0.00 0.00 85 1022.2
20260901032552 49 0 0.0 0.0 0.00 0.00 0.00 85 1022.1
20260901032052 49 0 0.0 0.0 0.00 0.00 0.00 85 1022.2
20260901031552 49 0 0.0 0.0 0.00 0.00 0.00 84 1022.3
20260901031052 49 0 0.0 0.0 0.00 0.00 0.00 84 1022.2
20260901030551 50 0 0.0 0.0 0.00 0.00 0.00 84 1022.3
20260901030051 50 0 0.0 0.0 0.00 0.00 0.00 84 1022.4
20260901025551 50 0 0.0 0.0 0.00 0.00 0.00 84 1022.5
20260901025050 50 0 0.0 0.0 0.00 0.00 0.00 84 1022.5
20260901024550 50 0 0.0 0.0 0.00 0.00 0.00 84 1022.6
20260901024050 50 0 0.0 0.0 0.00 0.00 0.00 84 1022.4
20260901023550 50 0 0.0 0.0 0.00 0.00 0.00 84 1022.5
20260901023049 50 0 0.0 0.0 0.00 0.00 0.00 84 1022.5
20260901022549 50 0 0.0 0.0 0.00 0.00 0.00 84 1022.6
20260901022049 50 0 0.0 0.0 0.00 0.00 0.00 84 1022.5
20260901021548 50 0 0.0 0.0 0.00 0.00 0.00 83 1022.5
20260901021048 51 0 0.0 0.0 0.00 0.00 0.00 83 1022.5
20260901020548 51 0 0.0 0.0 0.00 0.00 0.00 83 1022.5
20260901020048 51 0 0.0 0.0 0.00 0.00 0.00 82 1022.4
20260901015547 51 0 0.0 0.0 0.00 0.00 0.00 82 1022.4
20260901015047 51 0 0.0 0.0 0.00 0.00 0.00 83 1022.4
20260901014547 51 0 0.0 0.0 0.00 0.00 0.00 83 1022.4
20260901014046 51 0 0.0 0.0 0.00 0.00 0.00 83 1022.3
20260901013546 51 0 0.0 0.0 0.00 0.00 0.00 82 1022.3
20260901013046 51 0 0.0 0.0 0.00 0.00 0.00 82 1022.3
20260901012546 51 0 0.0 0.0 0.00 0.00 0.00 82 1022.3
20260901012045 51 0 0.0 0.0 0.00 0.00 0.00 81 1022.3
20260901011545 51 0 0.0 0.0 0.00 0.00 0.00 81 1022.2
20260901011045 51 0 0.0 0.0 0.00 0.00 0.00 81 1022.2
20260901010544 52 0 0.0 0.0 0.00 0.00 0.00 81 1022.2
20260901010044 52 0 0.0 0.0 0.00 0.00 0.00 81 1022.1
20260901005544 52 0 0.0 0.0 0.00 0.00 0.00 80 1022.1
20260901005044 52 0 0.0 0.0 0.00 0.00 0.00 80 1022.2
20260901004543 52 0 0.0 0.0 0.00 0.00 0.00 80 1022.2
20260901004043 52 0 0.0 0.0 0.00 0.00 0.00 80 1022.1
20260901003543 52 0 0.0 0.0 0.00 0.00 0.00 80 1022.1
20260901003042 53 0 0.0 0.0 0.00 0.00 0.00 80 1022.2
20260901002542 53 0 0.0 0.0 0.00 0.00 0.00 79 1022.1
20260901002042 53 0 0.0 0.0 0.00 0.00 0.00 79 1022.0
20260901001542 53 0 0.0 0.0 0.00 0.00 0.00 79 1022.1
20260901001041 53 0 0.0 0.0 0.00 0.00 0.00 79 1022.2
20260901000541 53 0 0.0 0.0 0.00 0.00 0.00 78 1022.2
20260901000041 53 0 0.0 0.0 0.00 0.00 0.00 78 1022.2
20260831235540 53 0 0.0 0.0 0.00 0.00 0.00 78 1022.1
20260831235040 53 0 0.0 0.0 0.00 0.00 0.00 78 1022.1
20260831234540 53 0 0.0 0.0 0.00 0.00 0.00 77 1022.1
20260831234040 53 0 0.0 0.0 0.00 0.00 0.00 77 1022.1
20260831233539 54 0 0.0 0.0 0.00 0.00 0.00 76 1022.0
20260831233039 54 0 0.0 0.0 0.00 0.00 0.00 76 1021.9
20260831232539 54 0 0.0 0.0 0.00 0.00 0.00 76 1022.0
20260831232039 54 0 0.0 0.0 0.00 0.00 0.00 76 1022.0
20260831231538 54 0 0.0 0.0 0.00 0.00 0.00 75 1022.0
20260831231038 54 0 0.0 0.0 0.00 0.00 0.00 75 1022.0
20260831230538 55 0 0.0 0.0 0.00 0.00 0.00 75 1021.9
20260831230037 55 0 0.0 0.0 0.00 0.00 0.00 75 1021.9
20260831225537 55 0 0.0 0.0 0.00 0.00 0.00 74 1022.1
20260831225037 55 0 0.0 0.0 0.00 0.00 0.00 73 1022.2
20260831224536 55 0 0.0 0.0 0.00 0.00 0.00 73 1022.3
20260831224036 56 0 0.0 0.0 0.00 0.00 0.00 73 1022.3
20260831223536 56 0 0.0 0.0 0.00 0.00 0.00 72 1022.3
20260831223036 56 0 0.0 0.0 0.00 0.00 0.00 71 1022.4
20260831222535 57 0 0.0 0.0 0.00 0.00 0.00 71 1022.4
20260831222035 57 0 0.0 0.0 0.00 0.00 0.00 70 1022.3
20260831221535 57 0 0.0 0.0 0.00 0.00 0.00 70 1022.4
20260831221035 57 0 0.0 0.0 0.00 0.00 0.00 69 1022.3
20260831220534 58 0 0.0 0.0 0.00 0.00 0.00 69 1022.3
20260831220034 58 0 0.0 0.0 0.00 0.00 0.00 69 1022.2
20260831215534 58 0 0.0 0.0 0.00 0.00 0.00 68 1022.3
20260831215033 59 0 0.0 0.0 0.00 0.00 0.00 68 1022.2
20260831214533 59 0 0.0 0.0 0.00 0.00 0.00 67 1022.2
20260831214033 59 0 0.0 0.0 0.00 0.00 0.00 66 1022.2
20260831213533 60 0 0.0 0.0 0.00 0.00 0.00 66 1022.2
20260831213032 60 0 0.0 0.0 0.00 0.00 0.00 66 1022.2
20260831212532 60 0 0.0 0.0 0.00 0.00 0.00 65 1022.2
20260831212032 60 0 0.0 0.0 0.00 0.00 0.00 65 1022.2
20260831211531 61 0 0.0 0.0 0.00 0.00 0.00 65 1022.2
20260831211031 61 0 0.0 0.0 0.00 0.00 0.00 65 1022.3
20260831210531 61 0 0.0 0.0 0.00 0.00 0.00 66 1022.3
20260831210031 61 0 0.0 0.0 0.00 0.00 0.00 66 1022.2
20260831205530 61 0 0.0 0.0 0.00 0.00 0.00 67 1022.1
20260831205030 61 0 0.0 0.0 0.00 0.00 0.00 67 1022.0
20260831204530 62 0 0.0 0.0 0.00 0.00 0.00 67 1021.8
20260831204029 62 0 0.0 0.0 0.00 0.00 0.00 68 1022.1
20260831203529 62 0 0.0 0.0 0.00 0.00 0.00 68 1022.0
20260831203029 62 0 0.0 0.0 0.00 0.00 0.00 68 1021.9
20260831202529 62 0 0.0 0.0 0.00 0.00 0.00 68 1021.7
20260831202028 62 0 0.0 0.0 0.00 0.00 0.00 69 1021.6
20260831201528 62 0 0.0 0.0 0.00 0.00 0.00 70 1021.7
20260831201028 62 0 0.0 0.0 0.00 0.00 0.00 70 1021.6
20260831200527 62 0 0.0 0.0 0.00 0.00 0.00 70 1021.5
20260831200027 62 0 0.0 0.0 0.00 0.00 0.00 71 1021.3
20260831195527 62 0 0.0 0.0 0.00 0.00 0.00 71 1021.3
20260831195027 62 0 0.0 0.0 0.00 0.00 0.00 71 1021.2
20260831194526 62 0 0.0 0.0 0.00 0.00 0.00 71 1021.3
20260831194026 62 0 0.0 0.0 0.00 0.00 0.00 71 1021.2
20260831193526 62 0 0.0 0.0 0.00 0.00 0.00 71 1021.0
20260831193025 62 0 0.0 0.0 0.00 0.00 0.00 71 1020.9
20260831192525 63 0 0.0 0.0 0.00 0.00 0.00 70 1020.9
20260831192025 63 0 0.0 0.0 0.00 0.00 0.00 70 1020.9
20260831191525 63 0 0.0 0.0 0.00 0.00 0.00 69 1020.6
20260831191024 63 0 0.0 0.0 0.00 0.00 0.00 69 1020.5
20260831190524 63 0 0.0 0.0 0.00 0.00 0.00 68 1020.5
20260831190024 64 0 0.0 0.0 0.00 0.00 0.00 68 1020.4
20260831185523 64 0 0.0 0.0 0.00 0.00 0.00 68 1020.4
20260831185023 64 0 0.0 0.0 0.00 0.00 0.00 67 1020.3
20260831184523 64 0 0.0 0.0 0.00 0.00 0.00 67 1020.3
20260831184023 64 0 0.0 0.0 0.00 0.00 0.00 66 1020.2
20260831183522 65 0 0.0 0.0 0.00 0.00 0.00 66 1020.2
20260831183022 65 0 0.0 0.0 0.00 0.00 0.00 66 1020.1
20260831182522 65 0 0.0 0.0 0.00 0.00 0.00 65 1020.0
20260831182021 66 0 0.0 0.0 0.00 0.00 0.00 65 1019.9
20260831181521 66 0 0.0 0.0 0.00 0.00 0.00 65 1019.7
20260831181021 66 0 0.0 0.0 0.00 0.00 0.00 64 1019.7
20260831180521 66 0 0.0 0.0 0.00 0.00 0.00 63 1019.7
20260831180020 67 0 0.0 0.0 0.00 0.00 0.00 62 1019.7
20260831175520 67 0 0.0 0.0 0.00 0.00 0.00 62 1019.5
20260831175020 67 0 0.0 0.0 0.00 0.00 0.00 61 1019.4
20260831174520 67 0 0.0 0.0 0.00 0.00 0.00 61 1019.3
20260831174019 68 0 0.0 0.0 0.00 0.00 0.00 60 1019.1
20260831173519 68 0 0.0 0.0 0.00 0.00 0.00 59 1019.4
20260831173019 69 0 0.0 0.0 0.00 0.00 0.00 58 1019.2
20260831172518 69 0 0.0 0.0 0.00 0.00 0.00 58 1019.1
20260831172018 69 0 0.0 0.0 0.00 0.00 0.00 57 1019.0
20260831171518 69 0 0.0 0.0 0.00 0.00 0.00 57 1018.9
20260831171018 70 0 0.0 0.0 0.00 0.00 0.00 56 1018.9
20260831170517 70 0 0.0 0.0 0.00 0.00 0.00 55 1018.9
20260831170017 71 0 0.0 0.0 0.00 0.00 0.00 54 1018.8
20260831165517 71 0 0.0 0.0 0.00 0.00 0.00 53 1018.9
20260831165016 72 0 0.0 0.0 0.00 0.00 0.00 51 1018.8
20260831164516 72 0 0.0 0.0 0.00 0.00 0.00 49 1018.8
20260831164016 73 0 0.0 0.0 0.00 0.00 0.00 48 1018.9
20260831163516 74 0 0.0 0.0 0.00 0.00 0.00 47 1018.9
20260831163015 75 0 0.0 0.0 0.00 0.00 0.00 44 1018.7
20260831162515 78 0 0.0 0.0 0.00 0.00 0.00 42 1018.8
20260831162015 80 0 0.0 0.0 0.00 0.00 0.00 40 1018.8
20260831161514 82 0 0.0 0.0 0.00 0.00 0.00 38 1018.9
20260831161014 84 0 0.0 0.0 0.00 0.00 0.00 38 1018.9
20260831160514 83 0 0.0 0.0 0.00 0.00 0.00 39 1018.8
20260831160014 81 0 0.0 0.0 0.00 0.00 0.00 43 1018.8
20260831155513 77 0 0.0 0.0 0.00 0.00 0.00 46 1018.8
20260831155013 74 0 0.0 0.0 0.00 0.00 0.00 49 1018.6
20260831154513 72 0 0.0 0.0 0.00 0.00 0.00 51 1018.7
20260831154012 72 0 0.0 0.0 0.00 0.00 0.00 52 1018.7
20260831153512 71 0 0.0 0.0 0.00 0.00 0.00 54 1018.8
20260831153012 71 0 0.0 0.0 0.00 0.00 0.00 55 1018.9
20260831152512 70 0 0.0 0.0 0.00 0.00 0.00 55 1018.8
20260831152011 71 0 0.0 0.0 0.00 0.00 0.00 54 1018.8
20260831151511 71 0 0.0 0.0 0.00 0.00 0.00 53 1018.9
20260831151011 71 0 0.0 0.0 0.00 0.00 0.00 52 1019.0
20260831150510 71 0 0.0 0.0 0.00 0.00 0.00 52 1018.8
20260831150010 71 0 0.0 0.0 0.00 0.00 0.00 51 1018.9
20260831145510 71 0 0.0 0.0 0.00 0.00 0.00 50 1018.9
20260831145010 72 0 0.0 0.0 0.00 0.00 0.00 50 1018.9
20260831144509 72 0 0.0 0.0 0.00 0.00 0.00 50 1019.0
20260831144009 72 0 0.0 0.0 0.00 0.00 0.00 49 1019.1
20260831143509 73 0 0.0 0.0 0.00 0.00 0.00 48 1019.1
20260831143008 74 0 0.0 0.0 0.00 0.00 0.00 46 1019.1
20260831142508 75 0 0.0 0.0 0.00 0.00 0.00 44 1019.1
20260831142008 78 0 0.0 0.0 0.00 0.00 0.00 43 1019.0
20260831141508 79 0 0.0 0.0 0.00 0.00 0.00 43 1018.8
20260831141007 79 0 0.0 0.0 0.00 0.00 0.00 43 1019.0
20260831140507 78 0 0.0 0.0 0.00 0.00 0.00 43 1018.8
20260831140007 76 0 0.0 0.0 0.00 0.00 0.00 46 1019.1
20260831135506 75 0 0.0 0.0 0.00 0.00 0.00 46 1019.0
20260831135006 75 0 0.0 0.0 0.00 0.00 0.00 46 1019.0
20260831134506 76 0 0.0 0.0 0.00 0.00 0.00 45 1018.9
20260831134006 77 0 0.0 0.0 0.00 0.00 0.00 44 1018.9
20260831133505 80 0 0.0 0.0 0.00 0.00 0.00 41 1018.9
20260831133005 83 0 0.0 0.0 0.00 0.00 0.00 39 1019.0
20260831132505 84 0 0.0 0.0 0.00 0.00 0.00 40 1019.0
20260831132004 83 0 0.0 0.0 0.00 0.00 0.00 41 1018.9
20260831131504 81 0 0.0 0.0 0.00 0.00 0.00 44 1019.1
20260831131004 78 0 0.0 0.0 0.00 0.00 0.00 44 1019.0
20260831130504 79 0 0.0 0.0 0.00 0.00 0.00 43 1019.0
20260831130004 81 0 0.0 0.0 0.00 0.00 0.00 42 1019.0
20260831125503 84 0 0.0 0.0 0.00 0.00 0.00 39 1019.0
20260831125003 85 0 0.0 0.0 0.00 0.00 0.00 39 1019.0
20260831124502 85 0 0.0 0.0 0.00 0.00 0.00 39 1019.0
20260831124002 84 0 0.0 0.0 0.00 0.00 0.00 43 1019.0
20260831123502 83 0 0.0 0.0 0.00 0.00 0.00 43 1018.9
20260831123002 83 0 0.0 0.0 0.00 0.00 0.00 43 1019.0
20260831122501 83 0 0.0 0.0 0.00 0.00 0.00 44 1019.1
20260831122001 83 0 0.0 0.0 0.00 0.00 0.00 44 1019.0
20260831121501 83 0 0.0 0.0 0.00 0.00 0.00 45 1019.0
20260831121000 80 0 0.0 0.0 0.00 0.00 0.00 47 1019.0
20260831120500 82 0 0.0 0.0 0.00 0.00 0.00 46 1019.1
20260831120000 83 0 0.0 0.0 0.00 0.00 0.00 45 1019.1
20260831115500 82 0 0.0 0.0 0.00 0.00 0.00 47 1019.1
20260831114959 80 0 0.0 0.0 0.00 0.00 0.00 50 1019.1
20260831114459 77 0 0.0 0.0 0.00 0.00 0.00 53 1019.1
20260831113959 76 0 0.0 0.0 0.00 0.00 0.00 56 1019.2
20260831113458 73 0 0.0 0.0 0.00 0.00 0.00 57 1019.3
20260831112958 73 0 0.0 0.0 0.00 0.00 0.00 57 1019.2
20260831112458 74 0 0.0 0.0 0.00 0.00 0.00 55 1019.3
20260831111958 75 0 0.0 0.0 0.00 0.00 0.00 53 1019.3
20260831111457 76 0 0.0 0.0 0.00 0.00 0.00 52 1019.4
20260831110957 79 0 0.0 0.0 0.00 0.00 0.00 49 1019.3
20260831110457 82 0 0.0 0.0 0.00 0.00 0.00 48 1019.3
20260831105957 79 0 0.0 0.0 0.00 0.00 0.00 51 1019.2
20260831105456 77 0 0.0 0.0 0.00 0.00 0.00 52 1019.2